Wind_Speed
25 25 24 24 23 23 23 23 22 22 20 19 19 19 19 20 21 21 21 22 23 25 25 24 24 24 24 23 23 23 23 22 21 21 19 18 18 18 17 17 17 16 16
25 24 24 23 23 22 22 21 20 19 18 17 17 17 17 18 18 19 20 21 22 24 26 27 27 26 26 26 25 25 25 25 24 23 23 22 21 21 20 19 19 18 18
25 24 23 23 22 21 21 20 18 16 16 15 15 15 15 16 16 17 17 19 20 22 24 25 27 27 27 27 27 28 28 27 27 26 26 26 25 24 23 22 21 20 20
25 23 23 23 22 21 20 18 17 16 16 15 14 14 14 15 15 15 16 17 18 20 22 24 26 27 28 28 29 30 29 30 29 29 29 29 28 27 26 25 24 23 22
25 23 23 23 22 21 20 19 18 17 16 15 14 15 14 15 15 16 16 17 18 19 21 23 25 26 27 28 30 31 31 31 31 31 31 31 31 30 29 28 28 26 25
26 24 24 23 22 21 20 19 19 18 17 16 15 15 15 15 16 16 17 18 19 19 20 22 24 26 27 28 29 31 32 32 32 32 32 33 33 33 32 31 30 29 28
26 25 24 23 22 21 21 20 19 19 18 17 16 16 15 15 15 16 17 18 19 20 20 21 23 25 27 28 29 29 31 33 34 33 33 34 35 35 35 33 32 31 30
26 26 26 24 23 22 22 21 21 20 20 18 17 17 16 16 16 17 17 18 19 20 20 21 22 24 25 28 28 30 31 32 33 34 34 34 35 36 36 36 35 33 32
26 26 26 25 24 24 23 23 23 22 22 21 20 19 17 17 18 18 18 19 19 20 21 21 22 23 24 25 27 28 29 31 32 32 33 34 35 36 36 36 35 34 33
27 27 26 26 26 26 26 26 25 25 24 24 23 22 21 19 19 19 20 20 20 21 22 22 22 23 24 24 25 27 27 28 30 31 31 33 34 36 36 36 36 35 34
29 28 28 29 28 28 28 28 29 28 28 27 27 26 24 23 21 20 21 22 22 22 22 22 22 23 24 24 24 26 26 26 27 29 30 30 32 34 36 37 37 36 35
34 33 32 32 31 31 32 32 32 32 31 30 30 29 28 27 25 24 23 23 23 23 23 23 23 23 23 24 24 24 25 25 26 28 29 30 31 32 34 36 37 36 35
39 38 37 36 36 35 36 35 35 35 34 34 33 32 31 30 29 27 26 25 24 24 24 24 24 23 23 23 24 25 25 25 25 26 27 29 30 31 32 33 35 34 34
45 44 43 42 42 41 41 40 39 39 38 37 36 35 34 33 31 30 29 27 25 25 25 25 25 24 23 23 23 25 24 25 25 25 26 27 28 29 30 32 33 33 33
50 49 49 48 48 47 46 45 43 42 42 40 39 37 36 35 34 33 31 29 28 26 25 26 25 24 23 23 22 24 24 24 24 24 25 25 25 27 29 30 31 32 32
55 55 54 53 53 52 51 50 49 46 45 44 43 41 39 38 36 35 34 32 30 28 26 26 25 25 24 22 22 23 24 25 24 24 23 23 23 24 26 27 29 30 31
60 59 59 58 57 56 55 54 52 51 50 48 46 45 42 40 39 37 35 34 33 30 27 27 26 25 24 23 22 23 24 24 23 23 23 23 23 23 23 24 26 28 29
64 63 63 62 61 60 59 57 56 54 53 51 49 48 45 43 41 39 38 36 34 32 29 27 27 25 24 22 22 22 22 22 22 22 23 23 22 23 23 24 25 26 26
66 66 66 65 64 63 62 60 59 57 56 54 52 50 48 45 43 41 39 37 35 34 31 28 27 25 24 23 22 22 22 22 22 22 23 23 23 23 23 23 23 23 24
66 67 67 68 67 67 65 64 62 60 58 57 55 53 51 48 45 43 41 38 36 34 31 30 28 26 24 23 21 20 21 21 22 22 22 22 23 23 23 23 23 23 23
58 60 63 65 66 67 67 66 65 64 61 59 57 55 53 51 48 45 43 40 38 35 32 30 28 27 25 23 22 21 21 21 21 21 22 23 23 23 23 23 23 23 22
46 48 51 54 57 61 64 65 66 65 64 61 59 57 54 52 50 47 44 42 39 36 33 31 29 27 25 24 23 22 21 21 21 22 22 22 22 22 22 23 23 23 22
35 37 38 41 44 48 52 56 60 62 63 62 61 59 56 53 51 49 47 43 40 37 34 31 29 27 25 24 22 22 22 21 21 21 22 22 22 23 22 21 22 22 21
32 32 32 33 34 36 40 44 49 54 57 58 59 59 57 55 52 51 49 45 41 38 35 32 30 28 25 24 22 22 22 21 21 21 21 22 22 22 22 21 21 20 20
31 30 30 30 30 31 33 36 39 44 48 51 54 56 55 54 53 51 49 47 43 40 36 32 30 28 26 24 22 22 21 21 21 21 20 21 21 21 21 20 20 20 20
31 30 28 28 28 28 29 30 33 35 40 44 48 51 52 51 51 50 49 47 44 41 37 33 31 29 27 24 23 22 22 22 21 21 20 21 21 20 20 20 20 20 20
Wind_Direction
285 284 284 283 281 280 279 278 279 277 274 271 270 270 269 268 266 265 265 262 260 256 254 255 255 255 255 254 253 250 250 250 251 250 248 245 242 242 242 241 242 244 245
280 281 281 281 280 279 279 278 277 274 271 269 268 268 268 267 267 266 266 265 262 260 257 257 255 254 253 253 251 249 249 248 248 248 246 244 242 242 242 243 242 242 244
281 280 280 280 279 278 277 275 271 268 266 264 264 265 265 268 267 269 271 268 264 262 259 259 257 256 253 251 250 249 248 247 246 246 245 243 242 241 242 242 243 242 242
282 280 281 280 277 275 274 270 267 263 262 261 262 262 264 267 269 273 276 274 271 267 265 263 260 257 255 251 249 250 248 247 246 246 244 243 241 240 241 242 243 242 242
283 281 280 279 276 272 270 268 266 264 262 262 264 266 265 267 270 274 277 278 277 275 272 267 261 260 259 255 253 251 249 248 247 246 244 242 241 241 241 242 242 242 243
283 281 279 276 273 269 266 265 265 262 260 263 266 268 271 271 272 275 279 280 282 282 279 271 264 261 260 256 254 252 249 248 247 246 245 242 241 241 241 241 242 242 242
281 281 276 272 269 266 264 262 262 260 259 260 264 267 272 274 277 279 282 285 286 286 283 278 270 265 262 258 255 254 250 247 245 246 246 243 242 241 240 240 241 242 242
278 278 274 268 265 264 262 261 260 259 257 257 260 264 269 275 279 281 284 287 289 289 286 283 276 271 266 259 256 254 251 248 247 246 246 244 242 240 239 240 241 242 242
281 278 272 267 265 262 259 258 258 258 258 258 258 261 266 273 281 285 287 289 290 291 290 287 281 275 270 264 259 255 252 248 247 246 245 244 242 238 237 238 240 240 241
278 276 272 268 264 262 259 257 258 258 258 260 260 262 266 270 275 282 288 291 293 293 292 290 286 279 273 265 260 255 252 250 247 246 246 246 243 239 237 238 238 239 240
276 274 272 270 264 261 260 258 258 257 258 259 261 264 267 269 271 276 283 289 293 294 294 292 289 282 276 268 261 255 253 250 246 245 245 246 244 240 238 237 237 239 240
275 272 270 269 265 263 261 260 259 259 258 259 261 264 267 270 272 275 278 283 289 292 294 293 290 285 278 268 262 257 254 252 249 246 245 245 244 242 238 237 237 239 239
273 270 268 266 265 263 262 261 259 259 259 260 261 263 265 268 271 274 277 280 284 289 292 293 291 286 278 270 262 258 254 256 254 251 248 245 242 242 241 238 237 237 238
272 269 268 265 263 262 261 260 259 258 259 260 260 262 264 266 270 273 276 278 281 285 288 290 291 287 279 271 264 259 255 255 257 255 252 247 243 241 240 237 237 238 239
270 268 266 265 263 261 260 259 258 258 257 258 259 260 262 264 267 270 273 276 278 281 285 287 288 287 280 272 265 259 255 254 255 254 253 250 247 243 240 237 234 235 237
270 268 266 264 263 261 259 258 258 257 255 255 257 258 259 262 265 267 270 273 276 278 281 284 285 285 280 271 264 261 257 255 254 252 251 250 248 244 239 237 234 235 236
270 268 266 264 263 261 259 258 257 256 255 254 255 255 256 259 261 264 267 270 272 274 277 280 282 282 277 270 264 261 256 253 252 249 247 245 245 241 240 239 237 235 236
269 267 265 263 262 260 259 258 256 255 254 253 253 253 253 255 257 260 263 266 268 270 272 276 278 277 274 269 263 260 255 250 250 247 244 242 242 239 240 239 237 235 236
267 265 264 262 260 259 258 257 256 254 253 252 251 251 251 253 253 255 258 261 263 266 268 271 273 272 270 266 263 258 253 250 249 246 244 242 241 240 240 239 237 237 238
267 264 262 261 259 258 257 256 255 253 252 251 250 249 249 250 251 252 253 256 259 262 264 267 268 267 266 262 261 258 253 250 248 247 244 242 241 241 240 238 238 238 239
268 265 262 260 258 257 255 254 253 252 251 249 248 247 247 247 247 248 249 251 254 257 260 262 263 262 262 261 259 256 253 250 246 245 244 242 240 239 238 238 239 239 239
269 266 263 260 258 256 254 252 251 250 249 248 246 245 244 244 243 244 245 247 249 252 255 257 259 259 259 257 256 254 251 248 246 244 243 241 237 237 238 238 239 238 238
275 271 268 264 261 257 255 252 250 248 247 245 244 243 241 241 240 240 241 242 244 247 250 252 253 254 254 253 252 251 250 247 245 243 241 240 238 236 236 237 237 236 236
277 275 271 267 264 261 257 253 250 247 244 242 241 240 238 238 237 237 237 238 241 243 245 247 248 248 249 248 248 249 247 243 240 240 239 238 235 233 234 235 235 233 232
276 275 273 268 265 263 259 255 250 246 242 238 236 235 234 234 234 234 235 235 236 238 240 241 243 242 243 244 243 243 243 242 240 237 235 234 232 233 233 232 231 229 229
274 273 270 268 267 264 261 257 251 246 240 236 233 230 229 228 229 230 230 230 232 233 235 236 237 236 238 238 238 237 238 238 235 232 231 232 232 231 228 228 229 227 225
Height
5865 5864 5863 5862 5861 5860 5859 5858 5858 5857 5857 5856 5856 5856 5855 5855 5855 5856 5855 5856 5857 5857 5857 5858 5859 5861 5862 5863 5865 5866 5868 5869 5871 5872 5873 5875 5877 5878 5880 5882 5883 5885 5886
5859 5858 5857 5856 5855 5854 5853 5853 5853 5852 5852 5851 5851 5851 5850 5850 5850 5850 5850 5850 5851 5851 5851 5852 5853 5853 5855 5857 5858 5860 5862 5864 5865 5867 5869 5870 5872 5874 5876 5877 5879 5881 5883
5852 5851 5851 5850 5849 5849 5848 5848 5848 5848 5847 5847 5847 5846 5846 5846 5845 5845 5845 5844 5845 5845 5845 5846 5846 5847 5848 5850 5852 5853 5855 5857 5859 5861 5863 5865 5867 5869 5871 5873 5875 5877 5879
5845 5844 5844 5844 5843 5843 5843 5843 5843 5843 5842 5842 5842 5842 5842 5841 5840 5840 5840 5839 5839 5840 5839 5839 5840 5840 5841 5842 5844 5846 5848 5850 5852 5854 5856 5858 5861 5863 5865 5868 5870 5872 5874
5837 5838 5838 5837 5837 5837 5837 5837 5837 5838 5838 5838 5838 5837 5837 5836 5836 5835 5835 5834 5834 5833 5833 5832 5833 5833 5834 5835 5836 5838 5840 5842 5845 5847 5849 5852 5854 5857 5859 5862 5864 5867 5869
5831 5831 5831 5831 5831 5831 5831 5832 5832 5832 5832 5833 5833 5832 5832 5831 5831 5830 5829 5829 5828 5827 5827 5826 5826 5826 5827 5828 5829 5830 5832 5834 5837 5839 5842 5844 5847 5850 5852 5855 5858 5861 5863
5825 5825 5824 5824 5825 5825 5826 5826 5826 5827 5827 5828 5828 5828 5827 5827 5826 5825 5824 5823 5822 5821 5821 5820 5819 5819 5820 5820 5821 5822 5824 5826 5829 5831 5834 5836 5839 5842 5845 5848 5851 5854 5857
5819 5818 5817 5818 5819 5819 5820 5821 5821 5821 5822 5823 5823 5823 5823 5823 5821 5820 5819 5818 5817 5816 5815 5813 5813 5813 5813 5813 5814 5815 5817 5818 5820 5823 5825 5828 5831 5834 5838 5841 5844 5847 5850
5812 5812 5811 5811 5811 5812 5813 5814 5814 5815 5815 5816 5817 5818 5818 5818 5817 5815 5814 5813 5811 5810 5809 5808 5807 5806 5806 5806 5807 5808 5809 5810 5813 5815 5817 5820 5823 5826 5830 5833 5836 5839 5842
5805 5805 5804 5804 5804 5804 5805 5806 5807 5808 5809 5809 5810 5811 5812 5812 5812 5811 5809 5807 5806 5804 5803 5802 5801 5800 5799 5800 5800 5801 5802 5803 5805 5808 5809 5812 5815 5818 5822 5825 5828 5832 5835
5797 5797 5796 5795 5795 5796 5797 5798 5799 5800 5801 5802 5803 5803 5804 5805 5805 5805 5804 5802 5801 5799 5797 5796 5794 5793 5793 5793 5793 5794 5795 5796 5798 5800 5802 5804 5807 5810 5813 5817 5820 5824 5827
5788 5787 5787 5787 5786 5787 5787 5788 5790 5791 5792 5794 5795 5795 5796 5797 5797 5798 5798 5797 5795 5793 5791 5790 5788 5787 5786 5786 5786 5787 5788 5790 5791 5793 5795 5798 5800 5802 5805 5809 5813 5816 5820
5776 5776 5777 5777 5777 5778 5778 5778 5779 5781 5782 5784 5785 5786 5787 5788 5789 5790 5790 5790 5789 5787 5785 5783 5782 5781 5780 5780 5780 5781 5782 5783 5785 5786 5788 5790 5793 5795 5798 5801 5805 5808 5812
5763 5763 5763 5765 5766 5767 5767 5768 5769 5770 5772 5773 5775 5777 5778 5779 5780 5781 5782 5782 5782 5782 5779 5777 5775 5774 5774 5773 5774 5774 5776 5777 5779 5780 5782 5784 5785 5788 5790 5793 5797 5801 5804
5748 5748 5749 5750 5751 5752 5754 5755 5757 5759 5760 5762 5764 5766 5768 5770 5771 5772 5773 5774 5775 5775 5774 5771 5769 5768 5767 5767 5768 5768 5770 5771 5772 5774 5775 5777 5779 5781 5783 5786 5789 5793 5797
5730 5731 5732 5733 5735 5736 5738 5741 5743 5745 5747 5750 5752 5754 5757 5759 5761 5762 5764 5765 5766 5767 5767 5765 5763 5762 5761 5761 5761 5762 5763 5765 5766 5768 5769 5771 5773 5775 5777 5780 5783 5786 5790
5710 5711 5712 5714 5716 5718 5721 5724 5727 5730 5733 5736 5739 5742 5745 5748 5750 5752 5754 5756 5757 5758 5759 5758 5757 5756 5755 5755 5755 5756 5757 5758 5760 5761 5763 5765 5767 5769 5771 5774 5776 5780 5783
5688 5689 5691 5693 5696 5698 5702 5705 5709 5713 5717 5721 5725 5729 5733 5736 5739 5742 5744 5746 5748 5749 5750 5751 5750 5749 5749 5749 5749 5750 5751 5752 5753 5755 5757 5759 5761 5764 5766 5768 5771 5774 5777
5665 5666 5668 5671 5674 5677 5681 5685 5690 5695 5700 5705 5710 5714 5719 5723 5727 5731 5734 5736 5738 5740 5742 5743 5743 5742 5742 5742 5743 5744 5745 5746 5748 5749 5751 5753 5755 5758 5760 5763 5765 5768 5770
5641 5642 5644 5647 5651 5655 5659 5664 5670 5675 5681 5687 5693 5698 5704 5709 5714 5719 5722 5726 5728 5730 5732 5734 5735 5735 5735 5736 5737 5738 5739 5740 5742 5744 5745 5747 5750 5752 5754 5757 5759 5762 5764
5617 5618 5620 5623 5627 5631 5636 5642 5648 5655 5661 5668 5675 5681 5688 5695 5701 5706 5710 5714 5718 5721 5723 5725 5727 5727 5729 5729 5731 5731 5733 5734 5736 5738 5740 5742 5744 5746 5748 5751 5754 5756 5759
5597 5598 5599 5601 5605 5608 5613 5619 5625 5633 5641 5649 5656 5664 5671 5679 5686 5692 5698 5703 5707 5711 5714 5717 5719 5720 5721 5723 5724 5725 5726 5728 5730 5732 5734 5736 5738 5741 5743 5745 5748 5750 5753
5583 5583 5583 5584 5586 5589 5592 5597 5603 5611 5619 5628 5637 5646 5654 5663 5670 5678 5685 5691 5696 5700 5704 5708 5710 5712 5714 5715 5717 5718 5720 5722 5724 5726 5728 5730 5732 5735 5737 5740 5742 5744 5747
5572 5571 5571 5571 5572 5574 5576 5579 5584 5591 5599 5608 5617 5627 5637 5646 5655 5663 5671 5678 5685 5690 5694 5698 5702 5704 5706 5708 5710 5712 5713 5715 5717 5720 5722 5724 5727 5729 5732 5734 5737 5739 5741
5561 5560 5560 5560 5561 5562 5563 5565 5568 5573 5581 5589 5598 5608 5619 5629 5639 5648 5657 5666 5673 5679 5684 5689 5693 5696 5698 5701 5703 5705 5707 5709 5711 5714 5716 5719 5721 5724 5726 5729 5731 5734 5737
5550 5550 5550 5550 5550 5551 5552 5553 5556 5560 5566 5573 5582 5591 5602 5613 5623 5633 5643 5652 5661 5668 5674 5679 5684 5687 5690 5693 5696 5698 5701 5703 5706 5708 5711 5713 5716 5719 5721 5724 5726 5729 5732